�N����,����,����,����,����,�C��,���x,�~����,�S�V����,�ő�u�ԕ���,,,
,,,,,,,,,����,����,����,�N��
yyyy/mm/dd,hh:mm:ss,-16,16����,m/s,��,%,mm,KW/�u,-16,16����,m/s,Time
2018/12/1,1:00:00,15,�k�k��,2.5,-5.7,76.8,0,0,13,���k��,5.3,56
2018/12/1,2:00:00,14,�k��,2.2,-6.2,79.5,0,0,14,�k��,4.4,2
2018/12/1,3:00:00,13,���k��,2.2,-7,85.1,0,0,12,��,4.4,56
2018/12/1,4:00:00,13,���k��,2.1,-7.2,87.3,0,0,12,��,4.2,27
2018/12/1,5:00:00,12,��,2.2,-7.9,89.6,0,0,13,���k��,3.2,21
2018/12/1,6:00:00,14,�k��,0.6,-9,90.9,0,0,12,��,3,1
2018/12/1,7:00:00,14,�k��,0.9,-7.9,90.8,0,0.01,14,�k��,3.6,31
2018/12/1,8:00:00,15,�k�k��,0.7,-6.8,90.6,0,0.04,13,���k��,3.9,32
2018/12/1,9:00:00,13,���k��,2.1,-2.2,81.6,0,0.19,14,�k��,4.4,32
2018/12/1,10:00:00,14,�k��,1.2,1.2,66.3,0,0.38,14,�k��,4.4,17
2018/12/1,11:00:00,15,�k�k��,1.2,2.8,60.9,0,0.28,14,�k��,3.2,31
2018/12/1,12:00:00,15,�k�k��,1.6,3.1,55.6,0,0.13,15,�k�k��,2.7,57
2018/12/1,13:00:00,16,�k,3.6,2.9,51.2,0,0.18,15,�k�k��,8.1,59
2018/12/1,14:00:00,15,�k�k��,4.5,2.8,56.1,0,0.24,15,�k�k��,10.4,41
2018/12/1,15:00:00,14,�k��,3.5,1,63.5,0,0.16,15,�k�k��,9.3,3
2018/12/1,16:00:00,15,�k�k��,2.9,0.5,65.2,0,0.03,16,�k,6.6,56
2018/12/1,17:00:00,15,�k�k��,4.9,-0.4,63.8,0,0,15,�k�k��,10.3,49
2018/12/1,18:00:00,16,�k,2.9,-1.5,64.3,0,0,16,�k,9.3,0
2018/12/1,19:00:00,15,�k�k��,2.5,-2.3,71.1,0,0,15,�k�k��,7.6,21
2018/12/1,20:00:00,15,�k�k��,3.1,-2.1,66,0,0,15,�k�k��,6,54
2018/12/1,21:00:00,15,�k�k��,2.8,-2.4,68.5,0,0,15,�k�k��,6.3,22
2018/12/1,22:00:00,12,��,2.8,-6.2,84.1,0,0,15,�k�k��,4.7,5
2018/12/1,23:00:00,13,���k��,2.4,-6.3,85,0,0,13,���k��,4.2,31
2018/12/1,0:00:00,-8.1,#N/A,85.2,0,0,,,,,,
2018/12/2,1:00:00,14,�k��,1.9,-8.7,91.3,0,0,14,�k��,2.8,54
2018/12/2,2:00:00,13,���k��,2.5,-8.6,94.9,0,0,12,��,3.5,57
2018/12/2,3:00:00,13,���k��,2.9,-8.5,92.8,0,0,13,���k��,4.2,45
2018/12/2,4:00:00,14,�k��,2.9,-7.8,91.7,0,0,13,���k��,4.3,43
2018/12/2,5:00:00,14,�k��,1.7,-9,92.8,0,0,13,���k��,3.7,6
2018/12/2,6:00:00,13,���k��,2.5,-9.3,93.4,0,0,13,���k��,3.8,42
2018/12/2,7:00:00,13,���k��,2.5,-8.5,94.4,0,0.02,13,���k��,4.1,40
2018/12/2,8:00:00,13,���k��,1.3,-4.9,84.3,0,0.15,13,���k��,3.9,12
2018/12/2,9:00:00,14,�k��,1.6,-0.8,68,0,0.28,13,���k��,3.3,28
2018/12/2,10:00:00,12,��,0.7,3,56.9,0,0.41,12,��,2.6,24
2018/12/2,11:00:00,8,��,1,5.1,48.3,0,0.52,9,��쐼,2.7,53
2018/12/2,12:00:00,5,���쓌,2.1,6.2,47.6,0,0.57,4,��,4.1,38
2018/12/2,13:00:00,6,�쓌,3.4,5.3,47.8,0,0.56,5,���쓌,4.7,53
2018/12/2,14:00:00,7,��쓌,2.4,5,51.4,0,0.41,7,��쓌,5,7
2018/12/2,15:00:00,16,�É�,0,6.3,54.1,0,0.22,7,��쓌,3.3,5
2018/12/2,16:00:00,1,�k�k��,0.6,2.6,66.2,0,0.07,1,�k�k��,2.7,11
2018/12/2,17:00:00,13,���k��,1.5,-1.3,92.2,0,0,13,���k��,2.3,49
2018/12/2,18:00:00,14,�k��,0.8,-4.2,89.1,0,0,12,��,2.6,34
2018/12/2,19:00:00,13,���k��,1.9,-5,94.3,0,0,12,��,3,58
2018/12/2,20:00:00,13,���k��,1.3,-4.8,93.1,0,0,13,���k��,3,23
2018/12/2,21:00:00,14,�k��,1.3,-6.5,94.1,0,0,11,���쐼,2.8,31
2018/12/2,22:00:00,13,���k��,2.1,-5.4,89.6,0,0,13,���k��,2.9,47
2018/12/2,23:00:00,13,���k��,1.9,-5.7,91.3,0,0,13,���k��,2.7,59
2018/12/2,0:00:00,13,���k��,2.8,-5.5,88.7,0,0,13,���k��,3.8,27
2018/12/3,1:00:00,13,���k��,2.5,-4.8,87.5,0,0,13,���k��,4.3,36
2018/12/3,2:00:00,14,�k��,1,-6,91.3,0,0,13,���k��,4.6,9
2018/12/3,3:00:00,14,�k��,2,-5.6,92.2,0,0,13,���k��,3,48
2018/12/3,4:00:00,14,�k��,1.9,-4.3,84.6,0,0,14,�k��,4.7,18
2018/12/3,5:00:00,13,���k��,2.9,-4.7,87.2,0,0,13,���k��,4,57
2018/12/3,6:00:00,13,���k��,1.1,-4.1,87.3,0,0,14,�k��,4.7,32
2018/12/3,7:00:00,13,���k��,2.5,-4.4,89.4,0,0.01,13,���k��,3.6,59
2018/12/3,8:00:00,13,���k��,2.6,-2.8,85.6,0,0.03,13,���k��,3.7,56
2018/12/3,9:00:00,13,���k��,2.5,0.6,74.2,0,0.12,13,���k��,4.1,0
2018/12/3,10:00:00,13,���k��,2.1,5.1,59.4,0,0.28,14,�k��,3.8,18
2018/12/3,11:00:00,10,�쐼,2.2,8.8,43.1,0,0.48,9,��쐼,3.7,56
2018/12/3,12:00:00,6,�쓌,2.4,9,46.5,0,0.52,7,��쓌,4,26
2018/12/3,13:00:00,7,��쓌,2.1,8.9,57.6,0,0.47,8,��,4.6,3
2018/12/3,14:00:00,7,��쓌,1.9,8.3,62.8,0,0.37,6,�쓌,3.1,56
2018/12/3,15:00:00,7,��쓌,0.9,7.7,70.1,0,0.22,8,��,2.4,17
2018/12/3,16:00:00,16,�É�,0.2,2.5,83.1,0,0.06,6,�쓌,1.8,8
2018/12/3,17:00:00,14,�k��,0.6,-2.5,93.3,0,0,13,���k��,1.3,52
2018/12/3,18:00:00,13,���k��,1.4,-2.2,97.9,0,0,13,���k��,2.3,26
2018/12/3,19:00:00,13,���k��,1.7,-2.5,97.6,0,0,13,���k��,2.6,9
2018/12/3,20:00:00,13,���k��,2,-2.4,98.2,0,0,12,��,2.9,7
2018/12/3,21:00:00,13,���k��,1.3,-3.3,99,0,0,13,���k��,2.9,6
2018/12/3,22:00:00,13,���k��,2.1,-2.7,99.4,0,0,13,���k��,3,49
2018/12/3,23:00:00,13,���k��,1.6,-4,98.8,0,0,13,���k��,3,20
2018/12/3,0:00:00,13,���k��,1.9,-3.5,99.8,0,0,13,���k��,3.1,1
2018/12/4,1:00:00,13,���k��,1.5,-2.2,98.6,0,0,14,�k��,4.2,47
2018/12/4,2:00:00,14,�k��,1.8,0.7,99,0,0,14,�k��,3.9,14
2018/12/4,3:00:00,13,���k��,2.4,-0.5,97.5,0,0,14,�k��,4.8,7
2018/12/4,4:00:00,14,�k��,1.4,0.9,94.7,0,0,14,�k��,3.9,15
2018/12/4,5:00:00,14,�k��,1.6,1.4,96.1,0,0,14,�k��,3,35
2018/12/4,6:00:00,13,���k��,1.3,1.7,93.7,0,0,13,���k��,3.3,13
2018/12/4,7:00:00,14,�k��,1.5,1.7,97.3,0,0.01,14,�k��,2.5,59
2018/12/4,8:00:00,14,�k��,1.4,2.2,95.3,0,0.02,14,�k��,4,41
2018/12/4,9:00:00,14,�k��,1.8,3.1,93.8,0,0.07,14,�k��,5.1,47
2018/12/4,10:00:00,14,�k��,2.5,4,87.9,0,0.14,14,�k��,4,57
2018/12/4,11:00:00,14,�k��,1.2,6.2,83.4,0,0.27,14,�k��,4.3,14
2018/12/4,12:00:00,1,�k�k��,0.9,6.6,85.5,0,0.18,16,�k,2.5,10
2018/12/4,13:00:00,7,��쓌,0.7,7,83.3,0,0.19,6,�쓌,2.5,36
2018/12/4,14:00:00,2,�k��,1.9,6.3,82.2,0,0.2,2,�k��,3.1,43
2018/12/4,15:00:00,1,�k�k��,0.9,6.8,82.1,0,0.11,2,�k��,2.6,3
2018/12/4,16:00:00,14,�k��,0.8,5.2,89.4,0,0.02,1,�k�k��,2.4,40
2018/12/4,17:00:00,14,�k��,2.1,4.3,93,0,0,14,�k��,3.5,57
2018/12/4,18:00:00,14,�k��,1.7,4.1,94.7,0,0,14,�k��,3.8,6
2018/12/4,19:00:00,14,�k��,1.8,3.9,96.8,0,0,13,���k��,3.3,23
2018/12/4,20:00:00,15,�k�k��,1.6,4.1,98.2,1.5,0,15,�k�k��,3.8,54
2018/12/4,21:00:00,15,�k�k��,2.9,4.5,98.8,3,0,13,���k��,6.2,41
2018/12/4,22:00:00,12,��,2.3,4.8,98.3,7,0,14,�k��,6.7,17
2018/12/4,23:00:00,2,�k��,0.7,5.2,97.4,1.5,0,15,�k�k��,4.2,35
2018/12/4,0:00:00,2.6,�k��,99.1,0,0,,,,,,
2018/12/5,1:00:00,13,���k��,1.1,3.4,99.8,0,0,13,���k��,4.7,47
2018/12/5,2:00:00,13,���k��,3.3,3.5,100,0,0,13,���k��,4.7,50
2018/12/5,3:00:00,13,���k��,1.4,1.5,98,0,0,13,���k��,5.2,2
2018/12/5,4:00:00,13,���k��,3,3.6,100,0,0,14,�k��,3.8,59
2018/12/5,5:00:00,16,�k,1,1.3,100,0,0,11,���쐼,3.7,20
2018/12/5,6:00:00,12,��,0.8,-0.7,100,0,0,12,��,2.4,48
2018/12/5,7:00:00,10,�쐼,0.7,-1.5,100,0,0.01,13,���k��,3.2,18
2018/12/5,8:00:00,14,�k��,2.3,1.1,100,0,0.06,13,���k��,4.2,47
2018/12/5,9:00:00,7,��쓌,1.1,7,85.9,0,0.28,14,�k��,3.5,11
2018/12/5,10:00:00,13,���k��,2,9.1,46.8,0,0.43,12,��,5.9,58
2018/12/5,11:00:00,12,��,5.9,8.5,45.9,0,0.51,12,��,8.8,59
2018/12/5,12:00:00,12,��,7.3,8,43.5,0,0.53,12,��,13,41
2018/12/5,13:00:00,13,���k��,5.6,7.3,38.1,0,0.49,12,��,11,37
2018/12/5,14:00:00,14,�k��,3.4,6,42.2,0,0.39,12,��,9.7,21
2018/12/5,15:00:00,15,�k�k��,2.6,4.4,43.1,0,0.23,15,�k�k��,6.2,1
2018/12/5,16:00:00,16,�k,1.4,1.6,54.2,0,0.06,15,�k�k��,5.2,2
2018/12/5,17:00:00,2,�k��,0.5,-1.1,65.2,0,0,16,�k,4.4,9
2018/12/5,18:00:00,13,���k��,0.4,-1.5,68.3,0,0,12,��,3,37
2018/12/5,19:00:00,1,�k�k��,1.5,-4.4,84.2,0,0,16,�k,2.8,15
2018/12/5,20:00:00,15,�k�k��,1.8,-2.4,64.4,0,0,14,�k��,3.5,58
2018/12/5,21:00:00,8,��,1.1,-5,82.4,0,0,14,�k��,2.8,1
2018/12/5,22:00:00,11,���쐼,1.3,-6.9,84.1,0,0,12,��,2,57
2018/12/5,23:00:00,13,���k��,1.5,-5,67.9,0,0,12,��,2.5,51
2018/12/5,0:00:00,16,�k,0.6,-5.2,73.2,0,0,12,��,3.2,39
2018/12/6,1:00:00,12,��,1.7,-6.8,87,0,0,16,�k,3,37
2018/12/6,2:00:00,13,���k��,1.9,-7.7,89.2,0,0,12,��,3.9,49
2018/12/6,3:00:00,13,���k��,1.4,-7.6,87.9,0,0,13,���k��,3.2,11
2018/12/6,4:00:00,13,���k��,1.8,-8.8,89.4,0,0,13,���k��,2.3,59
2018/12/6,5:00:00,12,��,2.3,-8.7,88.6,0,0,12,��,2.7,50
2018/12/6,6:00:00,13,���k��,1.5,-8.7,89.6,0,0,14,�k��,3,9
2018/12/6,7:00:00,13,���k��,2.7,-7.6,89.1,0,0.01,14,�k��,3.8,27
2018/12/6,8:00:00,14,�k��,0.7,-4.8,83.5,0,0.06,12,��,3.4,22
2018/12/6,9:00:00,-3.1,#N/A,84,0,0.13,,,,,,
2018/12/6,10:00:00,16,�É�,0,-0.7,79.6,0,0.18,9,��쐼,2.5,21
2018/12/6,11:00:00,2,�k��,2,0.9,62.2,0,0.18,2,�k��,3.7,52
2018/12/6,12:00:00,2,�k��,2.5,1.6,53.2,0,0.23,2,�k��,3.9,56
2018/12/6,13:00:00,2,�k��,2,2.2,50,0,0.22,1,�k�k��,4,3
2018/12/6,14:00:00,2,�k��,1.7,1.5,50.6,0,0.13,3,���k��,2.7,8
2018/12/6,15:00:00,1,�k�k��,1.6,0.9,52.4,0,0.04,1,�k�k��,2.4,21
2018/12/6,16:00:00,1,�k�k��,1.5,0.6,54,0,0.01,2,�k��,2.5,30
2018/12/6,17:00:00,2,�k��,2,-1.2,84.8,0,0,2,�k��,3,53
2018/12/6,18:00:00,1,�k�k��,1.1,-2.1,98.1,0,0,15,�k�k��,2.3,4
2018/12/6,19:00:00,15,�k�k��,1.4,-2.1,98.6,0.5,0,15,�k�k��,3,51
2018/12/6,20:00:00,14,�k��,1,-2.2,98.7,0.5,0,15,�k�k��,2.9,45
2018/12/6,21:00:00,14,�k��,1.1,-2.3,99.1,0,0,14,�k��,2.1,15
2018/12/6,22:00:00,15,�k�k��,1.3,-2.4,98.8,0.5,0,14,�k��,2.8,57
2018/12/6,23:00:00,14,�k��,2.2,-2.5,98,0.5,0,14,�k��,4,53
2018/12/6,0:00:00,14,�k��,3,-2.5,97.7,0.5,0,14,�k��,5.5,59
2018/12/7,1:00:00,14,�k��,3.3,-2.5,97.1,0,0,14,�k��,6.2,48
2018/12/7,2:00:00,14,�k��,2.8,-2.5,95.6,0,0,15,�k�k��,6.7,16
2018/12/7,3:00:00,14,�k��,2.9,-2.4,95.8,0,0,14,�k��,5.3,19
2018/12/7,4:00:00,14,�k��,4,-2.4,94.1,0,0,13,���k��,7.1,56
2018/12/7,5:00:00,15,�k�k��,2.5,-2.4,93.1,0,0,15,�k�k��,5.3,22
2018/12/7,6:00:00,14,�k��,1.9,-2.2,90.7,0,0,13,���k��,4.1,8
2018/12/7,7:00:00,13,���k��,2,-2.4,90.8,0,0,15,�k�k��,4.6,3
2018/12/7,8:00:00,16,�k,1.4,-2.2,91.2,0.5,0.03,15,�k�k��,3.9,3
2018/12/7,9:00:00,14,�k��,2.7,-2.1,91.6,0,0.07,14,�k��,4.3,57
2018/12/7,10:00:00,14,�k��,2.8,-2.2,93.5,0,0.08,13,���k��,4.9,58
2018/12/7,11:00:00,14,�k��,2.6,-2.2,95.4,0.5,0.11,15,�k�k��,4.9,40
2018/12/7,12:00:00,14,�k��,3.2,-2.2,96.5,0,0.11,12,��,5.8,0
2018/12/7,13:00:00,14,�k��,3.4,-2.3,96.7,0,0.08,12,��,10.2,19
2018/12/7,14:00:00,15,�k�k��,4.8,-2.4,96.9,1,0.05,15,�k�k��,8.7,43
2018/12/7,15:00:00,15,�k�k��,4.1,-2.3,97.9,0,0.03,15,�k�k��,9.1,12
2018/12/7,16:00:00,15,�k�k��,5.3,-2.7,95.8,0.5,0.01,15,�k�k��,12.3,47
2018/12/7,17:00:00,15,�k�k��,3.2,-2.9,75.3,0,0,15,�k�k��,9.6,19
2018/12/7,18:00:00,14,�k��,2.3,-3.5,70.4,0,0,15,�k�k��,8.5,5
2018/12/7,19:00:00,14,�k��,2.9,-3.8,67,0,0,14,�k��,5.3,53
2018/12/7,20:00:00,12,��,1.6,-6.8,68.9,0,0,15,�k�k��,6.2,9
2018/12/7,21:00:00,14,�k��,1.5,-10.8,81.9,0,0,12,��,3.3,9
2018/12/7,22:00:00,14,�k��,2.5,-7.3,70.8,0,0,13,���k��,6.3,36
2018/12/7,23:00:00,14,�k��,2.2,-10,82.8,0,0,15,�k�k��,8,16
2018/12/7,0:00:00,15,�k�k��,2.1,-7.2,74.4,0,0,15,�k�k��,6.5,34
2018/12/8,1:00:00,14,�k��,1.6,-12.8,97.8,0,0,14,�k��,3.7,0
2018/12/8,2:00:00,12,��,1.1,-17.5,90.5,0,0,13,���k��,2.3,30
2018/12/8,3:00:00,16,�k,0.9,-17.5,88.7,0,0,13,���k��,3.4,33
2018/12/8,4:00:00,13,���k��,1.4,-19.7,86.7,0,0,13,���k��,2.9,56
2018/12/8,5:00:00,13,���k��,2.4,-18.8,87.4,0,0,12,��,3.4,56
2018/12/8,6:00:00,13,���k��,1.1,-18.8,87.7,0,0,12,��,4.5,14
2018/12/8,7:00:00,13,���k��,2.5,-19.2,87.4,0,0.01,13,���k��,3.7,53
2018/12/8,8:00:00,13,���k��,1.6,-17.2,89.1,0,0.14,13,���k��,3.7,3
2018/12/8,9:00:00,13,���k��,2.5,-13.8,92.1,0,0.32,12,��,3.2,52
2018/12/8,10:00:00,12,��,0.9,-9.7,95.3,0,0.45,14,�k��,2.2,5
2018/12/8,11:00:00,13,���k��,3.8,-3.9,35.9,0,0.53,13,���k��,6.9,34
2018/12/8,12:00:00,14,�k��,3.1,-2.9,31.1,0.5,0.54,12,��,7,1
2018/12/8,13:00:00,12,��,6.2,-3.2,36.9,0,0.49,12,��,12,48
2018/12/8,14:00:00,13,���k��,4.2,-3.5,34,0,0.39,13,���k��,10.5,25
2018/12/8,15:00:00,12,��,1.8,-4.1,35.6,0.5,0.23,12,��,5,2
2018/12/8,16:00:00,16,�É�,0.2,-9,53,0.5,0.05,1,�k�k��,2.6,33
2018/12/8,17:00:00,13,���k��,1.4,-12.7,80.9,0,0,13,���k��,3,31
2018/12/8,18:00:00,12,��,0.3,-12.3,87.5,0,0,13,���k��,2.9,8
2018/12/8,19:00:00,13,���k��,1.8,-16.7,84,0,0,13,���k��,3.7,18
2018/12/8,20:00:00,13,���k��,2,-17.3,87.3,0,0,13,���k��,3.8,30
2018/12/8,21:00:00,13,���k��,1.2,-17.5,83.7,0,0,13,���k��,4.2,26
2018/12/8,22:00:00,13,���k��,2.6,-16.8,88,0,0,12,��,6,49
2018/12/8,23:00:00,13,���k��,2,-20.3,88.9,0,0,12,��,4.9,46
2018/12/8,0:00:00,14,�k��,2.4,-16.4,86.7,0,0,13,���k��,4.7,41
2018/12/9,1:00:00,14,�k��,2.2,-16.9,83.8,0,0,13,���k��,3.8,51
2018/12/9,2:00:00,14,�k��,3.8,-13.5,80.3,0,0,14,�k��,5.3,59
2018/12/9,3:00:00,14,�k��,3.1,-14.6,90.2,0,0,14,�k��,5.3,1
2018/12/9,4:00:00,14,�k��,2.5,-18.7,85.6,0,0,13,���k��,4.6,13
2018/12/9,5:00:00,14,�k��,2.8,-18.7,83.9,0,0,14,�k��,4.6,2
2018/12/9,6:00:00,14,�k��,1.2,-20,86.7,0,0,14,�k��,3.8,20
2018/12/9,7:00:00,13,���k��,2.4,-20.5,87.5,0,0.01,13,���k��,4.2,8
2018/12/9,8:00:00,13,���k��,2.7,-16.7,82.1,0,0.14,13,���k��,4.7,17
2018/12/9,9:00:00,13,���k��,0.8,-14.5,71,0,0.31,13,���k��,4.7,12
2018/12/9,10:00:00,16,�É�,0.1,-8.8,64.3,0,0.45,12,��,5.2,49
2018/12/9,11:00:00,16,�É�,0,-4.7,43.3,0,0.52,12,��,2.9,5
2018/12/9,12:00:00,14,�k��,1.7,-3,31.3,0,0.54,14,�k��,2.9,57
2018/12/9,13:00:00,15,�k�k��,1.7,-2.3,29.2,0,0.5,14,�k��,5.2,41
2018/12/9,14:00:00,16,�k,2.5,-2.9,34.8,0.5,0.39,13,���k��,6.2,0
2018/12/9,15:00:00,15,�k�k��,1.3,-4.7,41.2,1,0.16,1,�k�k��,4.5,33
2018/12/9,16:00:00,16,�É�,0.2,-7.9,46.4,0,0.05,2,�k��,3.6,29
2018/12/9,17:00:00,13,���k��,1.7,-13.2,67.1,0,0,13,���k��,4,53
2018/12/9,18:00:00,12,��,1.2,-13.3,74.7,0,0,12,��,3.4,28
2018/12/9,19:00:00,13,���k��,2.4,-15.8,80.9,0,0,12,��,3,20
2018/12/9,20:00:00,14,�k��,2.7,-12.5,78.1,0,0,13,���k��,4.7,38
2018/12/9,21:00:00,13,���k��,1.4,-18,83.3,0,0,13,���k��,3.6,31
2018/12/9,22:00:00,13,���k��,3,-18.4,87,0,0,12,��,4.6,33
2018/12/9,23:00:00,13,���k��,1.9,-18.9,88.1,0,0,13,���k��,3.9,37
2018/12/9,0:00:00,12,��,2.9,-17.4,89.9,0,0,13,���k��,4.6,4
2018/12/10,1:00:00,13,���k��,2.5,-18.2,85.9,0,0,12,��,4.5,54
2018/12/10,2:00:00,13,���k��,1.9,-19.3,85.4,0,0,12,��,4.7,59
2018/12/10,3:00:00,13,���k��,1.7,-20.1,86.9,0,0,12,��,3.8,33
2018/12/10,4:00:00,13,���k��,2,-19.6,85.8,0,0,12,��,6,45
2018/12/10,5:00:00,13,���k��,2.3,-20.3,87.8,0,0,12,��,4.1,52
2018/12/10,6:00:00,14,�k��,1.6,-19.3,88.6,0,0,12,��,3.7,8
2018/12/10,7:00:00,14,�k��,1.6,-18.5,84.8,0,0.01,12,��,6.5,18
2018/12/10,8:00:00,12,��,2,-17.5,87.1,0,0.13,12,��,4.1,14
2018/12/10,9:00:00,13,���k��,2.5,-13.9,74.5,0,0.3,13,���k��,4.4,38
2018/12/10,10:00:00,6,�쓌,1.1,-4,44.7,0,0.44,13,���k��,3.5,2
2018/12/10,11:00:00,14,�k��,3.4,-3.4,32.6,0,0.51,15,�k�k��,7.8,33
2018/12/10,12:00:00,15,�k�k��,4.2,-2.8,31.5,0,0.53,15,�k�k��,7.2,31
2018/12/10,13:00:00,15,�k�k��,5,-2.9,29.9,0,0.49,15,�k�k��,10,13
2018/12/10,14:00:00,15,�k�k��,4.5,-3.3,35.7,0,0.38,14,�k��,9,2
2018/12/10,15:00:00,15,�k�k��,3.4,-3.8,39.8,0,0.23,14,�k��,8.1,3
2018/12/10,16:00:00,14,�k��,2.6,-5.8,45.5,0,0.06,14,�k��,7.2,27
2018/12/10,17:00:00,14,�k��,2.1,-5.9,45.2,0,0,15,�k�k��,4.2,51
2018/12/10,18:00:00,14,�k��,1.8,-9.8,54.4,0,0,14,�k��,3.7,13
2018/12/10,19:00:00,14,�k��,1.5,-14.9,70.3,0,0,15,�k�k��,2.5,46
2018/12/10,20:00:00,13,���k��,2.4,-14.5,69.1,0,0,13,���k��,2.9,54
2018/12/10,21:00:00,13,���k��,1.9,-14,80.4,0,0,13,���k��,2.8,59
2018/12/10,22:00:00,13,���k��,2.9,-14.3,81.5,0,0,13,���k��,3.6,56
2018/12/10,23:00:00,13,���k��,3.3,-16.3,82.1,0,0,13,���k��,4.6,54
2018/12/10,0:00:00,13,���k��,2.8,-15.9,79.2,0,0,14,�k��,4.8,11
2018/12/11,1:00:00,13,���k��,2.5,-16.4,79.8,0,0,12,��,3.9,16
2018/12/11,2:00:00,13,���k��,3,-16.7,78.7,0,0,14,�k��,4.4,7
2018/12/11,3:00:00,13,���k��,3.6,-16.9,80.5,0,0,14,�k��,4.7,10
2018/12/11,4:00:00,14,�k��,1.5,-15.2,78.8,0,0,14,�k��,4.8,3
2018/12/11,5:00:00,13,���k��,1.9,-15.5,82.7,0,0,13,���k��,3.8,30
2018/12/11,6:00:00,13,���k��,2.4,-16.9,78.4,0,0,13,���k��,4.6,20
2018/12/11,7:00:00,14,�k��,2.3,-16.1,78.5,0,0.01,14,�k��,4.4,9
2018/12/11,8:00:00,13,���k��,2,-17.1,78,0,0.13,14,�k��,4.4,35
2018/12/11,9:00:00,13,���k��,0.9,-13.3,72.3,0,0.3,13,���k��,3.1,30
2018/12/11,10:00:00,16,�É�,0.1,-7.6,59.7,0,0.43,12,��,2.4,56
2018/12/11,11:00:00,-1.4,#N/A,46,0,0.51,,,,,,
2018/12/11,12:00:00,2,�k��,0.8,0.2,45,0,0.53,2,�k��,2.2,20
2018/12/11,13:00:00,4,��,1.8,0.3,57.4,0.5,0.49,4,��,2.4,59
2018/12/11,14:00:00,2,�k��,1.7,-0.6,51.1,0.5,0.38,2,�k��,2.7,36
2018/12/11,15:00:00,2,�k��,1.9,-1.4,56.5,0,0.23,3,���k��,3.2,41
2018/12/11,16:00:00,2,�k��,1.8,-3.6,53,0,0.05,2,�k��,2.9,5
2018/12/11,17:00:00,14,�k��,0.7,-9.9,79.4,0,0,1,�k�k��,2.5,33
2018/12/11,18:00:00,14,�k��,1.8,-7.9,73.2,0,0,13,���k��,2.5,30
2018/12/11,19:00:00,13,���k��,2.1,-9.2,80.3,0,0,13,���k��,3.4,31
2018/12/11,20:00:00,13,���k��,1.4,-11.5,86.3,0,0,13,���k��,3.3,32
2018/12/11,21:00:00,13,���k��,1.9,-11.3,88.6,0,0,14,�k��,2.7,59
2018/12/11,22:00:00,13,���k��,1.9,-11.4,84.2,0,0,13,���k��,3.8,33
2018/12/11,23:00:00,13,���k��,1.4,-11.5,83.3,0,0,14,�k��,3.3,29
2018/12/11,0:00:00,14,�k��,1.9,-7,71.4,0,0,14,�k��,4.4,34
2018/12/12,1:00:00,13,���k��,2.3,-9.8,79.8,0,0,14,�k��,3.9,9
2018/12/12,2:00:00,13,���k��,3.1,-10.6,79.3,0,0,14,�k��,4.1,57
2018/12/12,3:00:00,14,�k��,3,-8.4,75.1,0,0,14,�k��,4.3,57
2018/12/12,4:00:00,14,�k��,2.4,-8.5,72.4,0,0,14,�k��,4.5,2
2018/12/12,5:00:00,13,���k��,1.7,-10.7,83.9,0,0,14,�k��,3.8,13
2018/12/12,6:00:00,13,���k��,2,-9.3,78.6,0,0,14,�k��,3.6,20
2018/12/12,7:00:00,14,�k��,1.1,-9.1,82.9,0,0.01,13,���k��,2.5,35
2018/12/12,8:00:00,14,�k��,1.1,-6.8,76.8,0,0.03,15,�k�k��,7.3,5
2018/12/12,9:00:00,14,�k��,3.8,-5.5,71.3,0,0.07,14,�k��,5.5,55
2018/12/12,10:00:00,14,�k��,3.8,-4.4,76.5,0,0.11,14,�k��,7.2,18
2018/12/12,11:00:00,15,�k�k��,3.9,-4.8,85.7,0,0.15,15,�k�k��,7,57
2018/12/12,12:00:00,15,�k�k��,2.2,-4,88.5,0,0.25,14,�k��,6.2,8
2018/12/12,13:00:00,14,�k��,3.6,-4.5,89.5,0,0.14,14,�k��,6.6,46
2018/12/12,14:00:00,14,�k��,4.9,-4.8,92.7,0,0.08,14,�k��,8.6,11
2018/12/12,15:00:00,14,�k��,4.3,-4.5,92.9,0,0.05,14,�k��,8,59
2018/12/12,16:00:00,14,�k��,4.6,-4.2,94.3,0,0.01,15,�k�k��,7.8,35
2018/12/12,17:00:00,14,�k��,5,-4,96,0,0,15,�k�k��,8.8,44
2018/12/12,18:00:00,14,�k��,4.9,-3.8,95.7,0,0,14,�k��,9.6,45
2018/12/12,19:00:00,14,�k��,5,-3.8,96,0,0,14,�k��,9.8,55
2018/12/12,20:00:00,14,�k��,4.4,-3.4,94.5,0,0,14,�k��,9.4,30
2018/12/12,21:00:00,14,�k��,4,-3.2,93.1,0,0,14,�k��,7.6,21
2018/12/12,22:00:00,14,�k��,3.1,-2.8,90.8,0,0,14,�k��,7.4,2
2018/12/12,23:00:00,14,�k��,3.2,-2.6,90.1,0,0,14,�k��,7.2,26
2018/12/12,0:00:00,14,�k��,3.2,-2.8,86.1,0,0,14,�k��,6,42
2018/12/13,1:00:00,14,�k��,3.8,-3.4,88,0,0,14,�k��,6.9,39
2018/12/13,2:00:00,14,�k��,2.7,-4.6,91,0,0,14,�k��,6.1,13
2018/12/13,3:00:00,14,�k��,3.8,-4,87.3,0,0,14,�k��,6.4,49
2018/12/13,4:00:00,14,�k��,3.8,-4.8,85,0,0,15,�k�k��,6.7,51
2018/12/13,5:00:00,14,�k��,2.3,-5.8,87.7,0,0,14,�k��,5.8,41
2018/12/13,6:00:00,13,���k��,2.5,-8.6,93.9,0,0,14,�k��,4.1,0
2018/12/13,7:00:00,2,�k��,1,-7.7,97.6,0,0.01,13,���k��,3.7,10
2018/12/13,8:00:00,13,���k��,2.3,-10.4,95.6,0,0.1,13,���k��,3.6,40
2018/12/13,9:00:00,12,��,1.3,-5.6,78.7,0,0.28,14,�k��,2.9,10
2018/12/13,10:00:00,13,���k��,2.3,-4.7,70,0.5,0.42,13,���k��,3.1,55
2018/12/13,11:00:00,15,�k�k��,2.2,-2.3,61.5,0,0.51,14,�k��,4.4,20
2018/12/13,12:00:00,11,���쐼,0.4,-2.8,56.3,0,0.53,15,�k�k��,3,0
2018/12/13,13:00:00,3,���k��,1.7,-1.8,61.6,0.5,0.49,3,���k��,2.6,6
2018/12/13,14:00:00,4,��,1,-1.1,59.3,0.5,0.38,3,���k��,2.5,12
2018/12/13,15:00:00,11,���쐼,1.1,-4.8,65.3,0.5,0.23,11,���쐼,1.6,59
2018/12/13,16:00:00,13,���k��,1.4,-6.5,78.4,0,0.05,12,��,2.4,37
2018/12/13,17:00:00,14,�k��,1.9,-6.9,80.7,0,0,14,�k��,3.2,39
2018/12/13,18:00:00,14,�k��,1.9,-6.7,82.5,0,0,15,�k�k��,3.2,59
2018/12/13,19:00:00,14,�k��,2.8,-7.2,83.9,0,0,14,�k��,4.6,58
2018/12/13,20:00:00,14,�k��,2.9,-6.6,80.2,0,0,14,�k��,5,3
2018/12/13,21:00:00,14,�k��,3,-6,79.2,0,0,14,�k��,4.5,51
2018/12/13,22:00:00,14,�k��,2.8,-5.6,83.2,0,0,15,�k�k��,6,26
2018/12/13,23:00:00,15,�k�k��,1.9,-5.4,92,0,0,14,�k��,4.6,27
2018/12/13,0:00:00,14,�k��,3.2,-5.2,92.1,0,0,13,���k��,5,54
2018/12/14,1:00:00,14,�k��,4.4,-5.5,89.3,0,0,14,�k��,6.7,52
2018/12/14,2:00:00,15,�k�k��,2.4,-5.6,90.9,0,0,14,�k��,6.8,23
2018/12/14,3:00:00,14,�k��,1.9,-5.2,86.9,0,0,14,�k��,5,46
2018/12/14,4:00:00,14,�k��,2.8,-4.6,82.8,0,0,14,�k��,4.5,52
2018/12/14,5:00:00,14,�k��,2.5,-4.5,79.8,0,0,15,�k�k��,7.3,25
2018/12/14,6:00:00,14,�k��,2.9,-4.3,79.8,0,0,14,�k��,5.6,39
2018/12/14,7:00:00,14,�k��,3.1,-4.5,81.6,0,0.01,14,�k��,7,46
2018/12/14,8:00:00,14,�k��,3,-4.2,81.6,0,0.04,13,���k��,5.6,38
2018/12/14,9:00:00,1,�k�k��,1.3,-3.1,80.9,0,0.11,14,�k��,5.2,6
2018/12/14,10:00:00,14,�k��,2.9,-1.9,69.2,0,0.35,14,�k��,5,58
2018/12/14,11:00:00,14,�k��,3.3,-1.3,68.8,0,0.43,14,�k��,6,32
2018/12/14,12:00:00,15,�k�k��,2.8,-0.4,63.8,0,0.52,13,���k��,4.8,51
2018/12/14,13:00:00,13,���k��,1.6,-0.6,59.3,0,0.45,14,�k��,4.7,34
2018/12/14,14:00:00,13,���k��,2.5,-3,63.4,0,0.14,15,�k�k��,6.2,14
2018/12/14,15:00:00,14,�k��,2.1,-0.9,52.7,0,0.26,14,�k��,3.8,58
2018/12/14,16:00:00,15,�k�k��,1.3,-2.4,61.2,0,0.06,14,�k��,4.4,17
2018/12/14,17:00:00,15,�k�k��,3.7,-1.8,60.6,0,0,14,�k��,6.8,47
2018/12/14,18:00:00,15,�k�k��,2.3,-3.1,62.2,0,0,16,�k,5.4,15
2018/12/14,19:00:00,15,�k�k��,3.3,-2.8,61.8,0,0,14,�k��,7.4,34
2018/12/14,20:00:00,15,�k�k��,3.2,-3.2,64.4,0,0,16,�k,7.8,30
2018/12/14,21:00:00,15,�k�k��,3.5,-3.3,60.1,0,0,15,�k�k��,9.4,40
2018/12/14,22:00:00,15,�k�k��,4.3,-4.1,65.6,0,0,15,�k�k��,7.4,55
2018/12/14,23:00:00,14,�k��,4.3,-5.2,67.5,0,0,14,�k��,7.5,54
2018/12/14,0:00:00,14,�k��,3.7,-5.5,71.6,0,0,14,�k��,5.5,51
2018/12/15,1:00:00,13,���k��,2.5,-8.1,76.6,0,0,14,�k��,5.8,5
2018/12/15,2:00:00,14,�k��,2.3,-8.2,70.5,0,0,14,�k��,5.1,40
2018/12/15,3:00:00,12,��,1.2,-11.6,80.5,0,0,5,���쓌,3.9,24
2018/12/15,4:00:00,9,��쐼,0.7,-13.7,93.4,0,0,10,�쐼,3.6,34
2018/12/15,5:00:00,11,���쐼,0.3,-16.3,90.9,0,0,12,��,2.7,57
2018/12/15,6:00:00,12,��,0.8,-18.3,88.5,0,0,12,��,1.4,1
2018/12/15,7:00:00,14,�k��,0.4,-16,90.8,0,0.01,11,���쐼,9.3,14
2018/12/15,8:00:00,12,��,0.6,-14.3,93.1,0,0.11,13,���k��,2.2,24
2018/12/15,9:00:00,14,�k��,0.7,-8.8,76.4,0,0.29,12,��,3.7,38
2018/12/15,10:00:00,12,��,1.5,-5.5,56,0,0.42,12,��,2.5,47
2018/12/15,11:00:00,11,���쐼,2.1,-1.9,47.7,0,0.51,11,���쐼,3.1,52
2018/12/15,12:00:00,10,�쐼,1.5,-0.4,39.1,0,0.53,12,��,3,8
2018/12/15,13:00:00,15,�k�k��,0.4,0.6,45,0.5,0.49,11,���쐼,2.3,21
2018/12/15,14:00:00,7,��쓌,1.6,0.2,39.8,0,0.39,7,��쓌,3,54
2018/12/15,15:00:00,2,�k��,0.5,0.1,44.3,0,0.23,8,��,2.1,20
2018/12/15,16:00:00,16,�k,1.1,-9.5,68.8,0,0.06,2,�k��,1.9,14
2018/12/15,17:00:00,14,�k��,1.2,-11.1,76.1,0,0,14,�k��,1.8,59
2018/12/15,18:00:00,14,�k��,2,-7.8,70.2,0,0,14,�k��,2.9,29
2018/12/15,19:00:00,14,�k��,2.4,-10.4,77,0,0,14,�k��,3.4,47
2018/12/15,20:00:00,13,���k��,2.7,-11.4,77.5,0,0,14,�k��,3.8,17
2018/12/15,21:00:00,13,���k��,3,-11.9,86.8,0,0,14,�k��,3.9,50
2018/12/15,22:00:00,13,���k��,2.6,-12.7,88.7,0,0,13,���k��,3.8,1
2018/12/15,23:00:00,13,���k��,3.3,-12.6,87.5,0,0,13,���k��,4.2,34
2018/12/15,0:00:00,14,�k��,2.3,-12.2,87.7,0,0,14,�k��,3.9,31
2018/12/16,1:00:00,13,���k��,1.7,-13.4,88.1,0,0,13,���k��,3.7,16
2018/12/16,2:00:00,13,���k��,1.9,-13.2,89.7,0,0,12,��,4.3,4
2018/12/16,3:00:00,12,��,1.7,-13.7,89.4,0,0,13,���k��,3.9,19
2018/12/16,4:00:00,13,���k��,2.6,-13.9,89,0,0,12,��,4.5,35
2018/12/16,5:00:00,13,���k��,3,-13.7,88.6,0,0,13,���k��,4.4,50
2018/12/16,6:00:00,13,���k��,1.5,-13,90.4,0,0,13,���k��,3.8,40
2018/12/16,7:00:00,13,���k��,2.1,-13,90.4,0,0.01,12,��,4,45
2018/12/16,8:00:00,12,��,2.9,-11.7,91,0,0.04,12,��,3.5,0
2018/12/16,9:00:00,13,���k��,2.2,-10,85.6,0,0.13,12,��,3.9,16
2018/12/16,10:00:00,13,���k��,1,-4.7,71,0,0.41,12,��,3.8,27
2018/12/16,11:00:00,1.2,�k�k��,63.3,0,0.48,,,,,,
2018/12/16,12:00:00,4,��,0.9,4.1,60.2,0,0.46,10,�쐼,7.4,18
2018/12/16,13:00:00,9,��쐼,3.3,4.8,56.3,0,0.37,11,���쐼,6.2,46
2018/12/16,14:00:00,9,��쐼,3.5,5.2,59.8,0,0.19,9,��쐼,6.6,59
2018/12/16,15:00:00,9,��쐼,3.3,4.8,68.1,0,0.15,9,��쐼,7.3,16
2018/12/16,16:00:00,10,�쐼,2.7,4.3,71.4,0,0.03,8,��,6.1,0
2018/12/16,17:00:00,10,�쐼,3.1,4.3,67.1,0,0,10,�쐼,5.1,53
2018/12/16,18:00:00,9,��쐼,2.5,4.4,74.7,0,0,9,��쐼,5.4,40
2018/12/16,19:00:00,1,�k�k��,0.8,2,83.4,0,0,11,���쐼,3.7,9
2018/12/16,20:00:00,9,��쐼,3.3,4.6,86.1,0,0,8,��,5.4,49
2018/12/16,21:00:00,9,��쐼,2.5,5.1,81.9,0,0,9,��쐼,6.1,18
2018/12/16,22:00:00,8,��,1,4.3,83.5,0,0,8,��,5,23
2018/12/16,23:00:00,9,��쐼,1.8,4.1,99.1,0,0,9,��쐼,4.5,55
2018/12/16,0:00:00,12,��,2.2,-1.4,80.1,0,0,8,��,8.1,27
2018/12/17,1:00:00,13,���k��,3.6,-0.1,86.2,0,0,14,�k��,5.8,45